Location: Bagnolo San Vito
(45.0833°N, 10.8833°E)
Time: 22:50:50
(UTC+00:00)

Cosmos 2278 Rocket - Pass Details

Date: 03 March 2021
Orbit: 841 x 845 km, 71.0° (Epoch: 17 April)

Event Time Altitude Azimuth Distance (km) Brightness Sun altitude
Rises 20:24:33 0° 332° (NNW) 3,413 6.1 -34.6°
Reaches altitude 10° 20:27:01 10° 329° (NNW) 2,474 5.2 -35.0°
Enters shadow 20:30:29 38° 318° (NW) 1,273 3.4 -35.5°
